Location: Newark
(41.0400°S, 62.7845°W)
Time: 18:58:05
(UTC+00:00)

ISS - Pass Details

Date: 26 October 2021
Orbit: 417 x 423 km, 51.6° (Epoch: 29 November)

Event Time Altitude Azimuth Distance (km) Brightness Sun altitude
Rises 01:12:55 0° 230° (SW) 2,417 1.5 -24.7°
Reaches altitude 10° 01:15:20 10° 215° (SW) 1,547 0.1 -25.0°
Enters shadow 01:17:43 23° 173° (S) 975 -1.6 -25.3°
